Weather in Mokraya Savaleyevka

Russia / Republic of Tatarstan     54°56′13″N   48°00′18″E
temp.,
°C
wind,
m/s
gust,
m/s
humid.,
%
clouds,
%
prec.,
mm/h
press.,
hPa
HPBL,
m
21 april, wed
wed2100:00+5se91643100 0.0 1024713
03:00+4se91846100 0.0 1023718
06:00+3se91854100 0.2 1022863
09:00+3se102062100 1.2 1021857
12:00+3se101874100 0.1 1021797
15:00+2sse111983100 1.6 1020749
18:00+2sse101892100 2.9 1020677
21:00+2sse91694100 2.9 1020638
22 april, thu
thu2200:00+3s71495100 0.2 1020557
03:00+4s61195100 0.3 1021362
06:00+4sse51096100 0.1 1022249
09:00+6sse6119162 0.1 1023434
12:00+10s7975100 0.0 1023911
15:00+13s796094 0.5 10221329
18:00+10sse6108058 1.8 1023355
21:00+7sse612875 2.3 1024312
23 april, fri
fri2300:00+5sse499292 0.0 1024199
03:00+4sse47955 0.0 1024142
06:00+5sse47959 0.0 1025192
09:00+9sse55767 0.0 1025497
12:00+12sse456515 0.0 1024773
15:00+13se44603 0.0 1023759
18:00+12ese456518 0.0 1022462
21:00+9se388145 0.0 1022216
24 april, sat
sat2400:00+7e3588100 0.0 1020126
03:00+5ene2593100 0.0 1019125
06:00+5ene3691100 0.0 1017215
09:00+8ese4583100 0.0 1016581
12:00+10se4572100 0.1 1014990
15:00+10ese557198 0.1 1013748
18:00+10ese457261 0.0 1012612
21:00+8se61184100 0.0 1010439
25 april, sun
sun2500:00+7sse61487100 0.1 1008428
03:00+6w71080100 2.8 1009951
06:00+5w597397 0.0 10101072
09:00+8wsw69555 0.0 10111378
12:00+11wsw6839100 0.0 10112675
15:00+11sw5539100 0.0 10112017
18:00+8s786970 0.5 1012499
21:00+6s59805 1.4 1013262